Waarnemingen

Advertentie
Mijn weer
Lulea/Kallax, Zweden (2186): temperatuur & dauwpunt: 09.12.2017 14:00:00 - 15.12.2017 14:00:00 (CET)Lulea/Kallax, Zweden (2186): windsnelheid & windstoten: 09.12.2017 14:00:00 - 15.12.2017 14:00:00 (CET)Lulea/Kallax, Zweden (2186): windrichting: 09.12.2017 14:00:00 - 15.12.2017 14:00:00 (CET)Lulea/Kallax, Zweden (2186): luchtdruk: 09.12.2017 14:00:00 - 15.12.2017 14:00:00 (CET)Lulea/Kallax, Zweden (2186): zicht: 09.12.2017 14:00:00 - 15.12.2017 14:00:00 (CET)Lulea/Kallax, Zweden (2186): neerslag: 09.12.2017 14:00:00 - 15.12.2017 14:00:00 (CET)
Datum & Tijd tt [°C] td [°C] ff [km/u] ff [kn] fx [km/u] fx [kn] dd ppp [hPa] vv [km] rr [mm]
15.12.2017 14:00:00 -3,6 -4,0 4 2 7 4 NO 995,6 9 0,0
15.12.2017 13:00:00 -3,2 -3,6 9 5 18 10 ZO 995,5 6 0,0
15.12.2017 12:00:00 -1,6 -2,2 13 7 22 12 ZO 995,5 3,7 0,0
15.12.2017 11:00:00 -1,1 -2,7 13 7 25 14 ZO 995,4 10 0,0
15.12.2017 10:00:00 -0,8 -1,9 18 10 25 14 ZO 995,1 10 0,0
15.12.2017 09:00:00 -0,8 -1,5 22 12 32 18 ZO 994,9 10 0,0
15.12.2017 08:00:00 -0,7 -1,8 21 11 29 16 ZO 994,7 10 0,0
15.12.2017 07:00:00 -1,1 -2,8 9 5 22 12 OZO 994,4 10 0,0
15.12.2017 06:00:00 -1,8 -3,5 9 5 18 10 ZO 994,3 10 0,0
15.12.2017 05:00:00 -1,0 -4,2 15 8 29 16 ZZO 994,1 10 0,0
15.12.2017 04:00:00 -0,8 -3,2 16 9 22 12 ZO 993,9 10 0,0
15.12.2017 03:00:00 -0,5 -2,6 13 7 18 10 ZZO 993,8 10 0,0
15.12.2017 02:00:00 -0,5 -2,4 13 7 25 14 ZZO 993,8 10 0,0
15.12.2017 01:00:00 -0,3 -2,2 16 9 25 14 ZZO 993,5 10 0,0
15.12.2017 00:00:00 -0,1 -2,0 22 12 29 16 ZZO 993,3 10 0,0
14.12.2017 23:00:00 0,2 -1,6 24 13 32 18 Z 993,0 10 0,0
14.12.2017 22:00:00 0,3 -1,0 21 11 32 18 Z 992,7 10 0,0
14.12.2017 21:00:00 -2,8 -3,2 9 5 22 12 Z 992,4 10 0,0
14.12.2017 20:00:00 -7,3 -8,1 0 0 11 6 N 992,3 10 0,0
14.12.2017 19:00:00 -8,5 -9,6 2 1 7 4 - 992,0 5 0,2
14.12.2017 18:00:00 -9,4 -10,5 4 2 7 4 - 991,6 3,9 0,3
14.12.2017 17:00:00 -10,1 -11,3 5 3 11 6 N 991,3 3,1 0,2
14.12.2017 16:00:00 -10,6 -11,6 8 4 14 8 N 991,2 2,0 0,4
14.12.2017 15:00:00 -10,9 -12,2 8 4 11 6 NNW 991,1 1,5 0,2
14.12.2017 14:00:00 -11,0 -12,3 8 4 11 6 N 990,9 1,5 0,2
14.12.2017 13:00:00 -10,7 -11,9 8 4 14 8 N 990,8 3,5 0,0
14.12.2017 12:00:00 -11,0 -12,5 8 4 14 8 N 990,9 4,0 0,0
14.12.2017 11:00:00 -10,9 -12,6 4 2 7 4 - 990,8 7 0,0
14.12.2017 10:00:00 -11,9 -13,5 4 2 7 4 NW 990,4 10 0,0
14.12.2017 09:00:00 -13,5 -15,1 2 1 4 2 - 989,7 10 0,0
14.12.2017 08:00:00 -14,1 -15,7 2 1 7 4 - 989,3 10 0,0
14.12.2017 07:00:00 -14,5 -16,0 2 1 7 4 - 988,8 10 0,0
14.12.2017 06:00:00 -16,5 -17,8 4 2 7 4 ZZO 988,6 10 0,0
14.12.2017 05:00:00 -16,1 -17,5 0 0 7 4 N 988,1 10 0,0
14.12.2017 04:00:00 -14,6 -16,6 5 3 7 4 Z 987,6 10 0,0
14.12.2017 03:00:00 -14,7 -16,4 4 2 7 4 - 987,3 10 0,0
14.12.2017 02:00:00 -14,1 -15,7 2 1 18 10 - 987,1 10 0,0
14.12.2017 01:00:00 -13,5 -15,2 2 1 11 6 - 986,3 10 0,0
14.12.2017 00:00:00 -13,1 -15,1 5 3 11 6 WZW 986,0 10 0,0
13.12.2017 23:00:00 -13,3 -15,1 4 2 14 8 ZW 985,7 10 0,0
13.12.2017 22:00:00 -13,7 -15,3 5 3 14 8 ZZW 985,1 10 0,0
13.12.2017 21:00:00 -13,4 -15,0 4 2 7 4 - 984,9 10 0,0
13.12.2017 20:00:00 -14,7 -16,1 2 1 11 6 - 984,5 10 0,0
13.12.2017 19:00:00 -12,2 -13,8 2 1 11 6 - 984,4 10 0,0
13.12.2017 18:00:00 -11,8 -13,1 2 1 11 6 - 984,1 10 0,0
13.12.2017 17:00:00 -10,8 -12,2 4 2 11 6 - 983,8 10 0,0
13.12.2017 16:00:00 -9,5 -11,0 8 4 14 8 ZW 983,7 10 0,0
13.12.2017 15:00:00 -8,7 -10,4 9 5 18 10 WZW 983,6 10 0,0
13.12.2017 14:00:00 -7,5 -9,4 13 7 22 12 W 983,5 10 0,0
13.12.2017 13:00:00 -6,4 -8,4 15 8 25 14 W 983,0 10 0,0
13.12.2017 12:00:00 -6,0 -7,8 15 8 25 14 W 982,4 10 0,0
13.12.2017 11:00:00 -5,2 -7,2 16 9 29 16 W 982,0 10 0,0
13.12.2017 10:00:00 -4,5 -6,5 22 12 32 18 WNW 981,4 10 0,0
13.12.2017 09:00:00 -4,1 -5,8 24 13 32 18 WNW 981,0 10 0,0
13.12.2017 08:00:00 -4,0 -5,4 24 13 40 21 WNW 980,4 8 0,0
13.12.2017 07:00:00 -3,8 -5,2 29 16 40 21 NW 979,8 9 0,2
13.12.2017 06:00:00 -3,9 -5,2 29 16 40 21 NW 979,9 7 0,0
13.12.2017 05:00:00 -4,1 -5,1 28 15 40 21 NW 980,0 2,7 0,0
13.12.2017 04:00:00 -4,1 -4,9 31 17 40 21 NW 979,7 3,0 0,2
13.12.2017 03:00:00 -4,0 -4,7 26 14 36 19 NW 980,1 3,1 0,2
13.12.2017 02:00:00 -4,0 -4,8 24 13 32 18 NNW 980,6 3,7 0,1
13.12.2017 01:00:00 -4,1 -4,9 22 12 32 18 NNW 981,4 3,1 0,2
13.12.2017 00:00:00 -3,9 -4,7 22 12 36 19 NNW 982,1 2,5 0,1
12.12.2017 23:00:00 -3,9 -4,6 21 11 32 18 NNW 983,1 2,1 0,1
12.12.2017 22:00:00 -3,8 -4,5 18 10 29 16 NNW 984,5 2,8 0,1
12.12.2017 21:00:00 -3,7 -4,2 15 8 25 14 N 985,9 2,1 0,2
12.12.2017 20:00:00 -3,7 -4,2 11 6 22 12 N 987,3 2,0 0,3
12.12.2017 19:00:00 -3,7 -4,2 13 7 22 12 N 988,6 1,8 0,3
12.12.2017 18:00:00 -3,5 -4,0 11 6 22 12 N 990,0 2,1 0,3
12.12.2017 17:00:00 -3,5 -4,0 11 6 22 12 NNO 991,7 2,5 0,3
12.12.2017 16:00:00 -3,3 -3,8 13 7 25 14 NNO 993,3 3,5 0,2
12.12.2017 15:00:00 -3,0 -3,4 13 7 25 14 NO 994,5 3,0 0,0
12.12.2017 14:00:00 -2,5 -2,9 11 6 22 12 NO 995,2 2,5 0,5
12.12.2017 13:00:00 -2,1 -2,5 11 6 18 10 ONO 996,6 1,5 0,6
12.12.2017 12:00:00 -1,7 -2,3 5 3 14 8 ONO 997,8 2,0 0,0
12.12.2017 11:00:00 -1,3 -2,7 5 3 14 8 ONO 998,5 10 0,0
12.12.2017 10:00:00 -1,2 -2,5 9 5 14 8 O 999,6 10 0,0
12.12.2017 09:00:00 -1,3 -2,0 8 4 11 6 ONO 1000,1 10 0,0
12.12.2017 08:00:00 -1,3 -1,9 8 4 14 8 O 1000,5 9 0,0
12.12.2017 07:00:00 -1,9 -2,7 5 3 22 12 O 1000,9 10 0,0
12.12.2017 06:00:00 -1,2 -1,8 18 10 25 14 Z 1001,4 10 0,0
12.12.2017 05:00:00 -1,0 -1,7 11 6 18 10 ZO 1002,1 10 0,0
12.12.2017 04:00:00 -0,9 -1,5 9 5 14 8 OZO 1002,2 10 0,0
12.12.2017 03:00:00 -0,2 -0,6 11 6 18 10 ZZO 1002,4 10 0,0
12.12.2017 02:00:00 -0,3 -0,9 13 7 18 10 ZO 1002,6 10 0,0
12.12.2017 01:00:00 -1,6 -1,9 9 5 14 8 ZO 1002,9 10 0,0
12.12.2017 00:00:00 -1,3 -1,6 8 4 14 8 ZO 1003,2 10 0,0
11.12.2017 23:00:00 -0,2 -0,3 9 5 14 8 Z 1003,4 10 0,0
11.12.2017 22:00:00 0,0 -0,1 9 5 11 6 ZZO 1003,4 10 0,0
11.12.2017 21:00:00 0,0 -0,3 9 5 18 10 Z 1003,3 3,0 0,9
11.12.2017 20:00:00 0,0 -0,4 9 5 14 8 ZZO 1002,9 4,1 0,3
11.12.2017 19:00:00 -0,1 -0,4 5 3 14 8 ZZO 1002,7 10 0,0
11.12.2017 18:00:00 -0,5 -0,8 8 4 11 6 ZO 1002,5 10 0,0
11.12.2017 17:00:00 -0,6 -0,7 5 3 11 6 ZO 1002,0 10 0,0
11.12.2017 16:00:00 -0,4 -0,7 5 3 7 4 OZO 1001,5 10 0,0
11.12.2017 15:00:00 -0,9 -1,2 8 4 7 4 ZO 1001,1 10 0,0
11.12.2017 14:00:00 -0,8 -1,1 0 0 4 2 N 1000,8 10 0,0
11.12.2017 13:00:00 -0,2 -0,6 2 1 11 6 - 1000,4 10 0,0
11.12.2017 12:00:00 -0,4 -1,0 9 5 11 6 ZZW 1000,5 10 0,0
11.12.2017 11:00:00 0,2 -0,4 8 4 14 8 Z 1000,0 2,0 0,1
11.12.2017 10:00:00 0,2 -0,2 8 4 11 6 Z 999,6 3,0 0,0
11.12.2017 09:00:00 0,3 -0,3 5 3 14 8 Z 998,8 4,0 0,0
11.12.2017 08:00:00 0,0 -0,4 9 5 18 10 OZO 998,2 4,0 0,0
11.12.2017 07:00:00 -0,4 -1,0 11 6 18 10 ZZO 997,5 5 0,0
11.12.2017 06:00:00 -0,1 -0,9 13 7 18 10 Z 997,1 10 0,0
11.12.2017 05:00:00 -0,1 -0,7 9 5 14 8 OZO 996,7 10 0,0
11.12.2017 04:00:00 -0,6 -0,9 8 4 11 6 ZO 996,3 10 0,0
11.12.2017 03:00:00 -0,1 -0,4 9 5 14 8 ZO 996,1 7 0,0
11.12.2017 02:00:00 -0,3 -0,7 8 4 18 10 ZO 995,8 6 0,3
11.12.2017 01:00:00 0,2 -0,5 9 5 18 10 OZO 995,7 9 0,0
11.12.2017 00:00:00 0,4 -0,6 5 3 14 8 O 995,5 10 0,0
10.12.2017 23:00:00 0,4 -0,7 9 5 14 8 OZO 995,4 10 0,0
10.12.2017 22:00:00 0,5 -0,9 8 4 14 8 OZO 995,3 10 0,0
10.12.2017 21:00:00 0,5 -1,3 11 6 22 12 OZO 995,3 10 0,0
10.12.2017 20:00:00 0,5 -1,3 15 8 22 12 ZO 995,3 10 0,0
10.12.2017 19:00:00 0,6 -1,4 15 8 25 14 OZO 995,3 10 0,0
10.12.2017 18:00:00 0,8 -1,6 18 10 32 18 ZO 995,3 10 0,0
10.12.2017 17:00:00 0,8 -1,6 26 14 36 19 ZO 995,4 10 0,0
10.12.2017 16:00:00 0,8 -1,6 28 15 40 21 ZO 995,3 10 0,0
10.12.2017 15:00:00 1,0 -1,2 31 17 40 21 ZO 995,1 10 0,0
10.12.2017 14:00:00 1,0 -1,1 31 17 40 21 ZO 995,2 10 0,0
10.12.2017 13:00:00 0,6 -0,5 37 20 47 25 ZZO 995,2 10 0,0
10.12.2017 12:00:00 0,6 -0,3 31 17 40 21 ZZO 995,1 9 0,2
10.12.2017 11:00:00 0,9 -0,1 34 18 43 23 ZZO 994,9 6 0,3
10.12.2017 10:00:00 1,2 0,2 35 19 47 25 ZZO 994,9 9 0,0
10.12.2017 09:00:00 1,5 0,9 29 16 43 23 ZZO 994,1 9 0,1
10.12.2017 08:00:00 1,0 0,7 29 16 40 21 ZZO 993,6 9 0,5
10.12.2017 07:00:00 0,1 0,0 31 17 40 21 ZZO 993,1 1,2 1,0
10.12.2017 06:00:00 0,6 0,2 28 15 40 21 ZZO 992,8 2,7 0,4
10.12.2017 05:00:00 1,3 0,6 31 17 40 21 ZZO 992,4 10 0,3
10.12.2017 04:00:00 1,3 0,7 24 13 40 21 ZZO 992,4 9 0,1
10.12.2017 03:00:00 1,0 0,0 22 12 - - ZZO - 10 -
10.12.2017 02:00:00 1,8 0,8 26 14 36 19 ZZO 992,0 10 0,0
10.12.2017 01:00:00 1,7 0,8 24 13 32 18 ZZO 991,8 10 0,0
10.12.2017 00:00:00 1,5 0,9 26 14 32 18 ZZO 991,6 7 0,2
09.12.2017 23:00:00 1,7 0,8 26 14 32 18 ZZO 991,4 7 0,0
09.12.2017 22:00:00 1,7 1,0 24 13 32 18 ZZO 991,1 10 0,0
09.12.2017 21:00:00 1,6 1,0 21 11 29 16 ZZO 990,8 5 0,3
09.12.2017 20:00:00 1,8 0,9 22 12 25 14 ZZO 990,4 10 0,0
09.12.2017 19:00:00 1,9 1,0 21 11 25 14 ZZO 989,9 10 0,0
09.12.2017 18:00:00 1,6 1,0 16 9 32 18 ZZO 989,8 10 0,2
09.12.2017 17:00:00 1,4 1,0 21 11 25 14 ZZO 989,5 10 0,0
09.12.2017 16:00:00 1,6 1,0 21 11 32 18 ZO 989,2 10 0,0
09.12.2017 15:00:00 1,4 1,0 28 15 40 21 ZO 988,9 6 0,0
09.12.2017 14:00:00 1,7 1,0 29 16 40 21 ZO 988,6 5 0,1

tt = temperatuur
td = dauwpunt
ff = windsnelheid
fx = windstoten
dd = windrichting
ppp = luchtdruk
vv = zicht
rr = neerslag

Weerstations in de omgeving